| time (UTC) | temp C | wind direction | speed KPH | gust KPH | rain 1hr cm | rain 24hr cm | rain mn cm | humidity % | barometer mb |
| 20260503211019 | 27 | 315 | 4.8 | 17.7 | 0.00 | 0.00 | 0.00 | 41 | 1012.1 |
| 20260503210021 | 27 | 293 | 3.2 | 11.3 | 0.00 | 0.00 | 0.00 | 40 | 1012.2 |
| 20260503205020 | 27 | 0 | 1.6 | 8.0 | 0.00 | 0.00 | 0.00 | 38 | 1012.4 |
| 20260503204021 | 27 | 0 | 1.6 | 16.1 | 0.00 | 0.00 | 0.00 | 38 | 1012.5 |
| 20260503203021 | 27 | 338 | 3.2 | 16.1 | 0.00 | 0.00 | 0.00 | 42 | 1012.6 |
| 20260503202020 | 27 | 90 | 1.6 | 8.0 | 0.00 | 0.00 | 0.00 | 43 | 1012.7 |
| 20260503201040 | 27 | 338 | 1.6 | 9.7 | 0.00 | 0.00 | 0.00 | 41 | 1012.8 |
| 20260503200020 | 26 | 0 | 3.2 | 9.7 | 0.00 | 0.00 | 0.00 | 44 | 1013.0 |
| 20260503195019 | 26 | 315 | 3.2 | 9.7 | 0.00 | 0.00 | 0.00 | 46 | 1013.2 |
| 20260503194018 | 26 | 315 | 4.8 | 11.3 | 0.00 | 0.00 | 0.00 | 48 | 1013.3 |
| 20260503193020 | 26 | 315 | 1.6 | 11.3 | 0.00 | 0.00 | 0.00 | 44 | 1013.4 |
| 20260503192059 | 26 | 23 | 1.6 | 9.7 | 0.00 | 0.00 | 0.00 | 45 | 1013.5 |
| 20260503191040 | 26 | 315 | 1.6 | 8.0 | 0.00 | 0.00 | 0.00 | 50 | 1013.6 |
| 20260503190018 | 25 | 315 | 1.6 | 11.3 | 0.00 | 0.00 | 0.00 | 49 | 1013.8 |
| 20260503185059 | 25 | 0.0 | 6.4 | 0.00 | 0.00 | 0.00 | 49 | 1013.9 | |
| 20260503184020 | 24 | 90 | 1.6 | 4.8 | 0.00 | 0.00 | 0.00 | 48 | 1014.0 |
| 20260503183020 | 24 | 338 | 1.6 | 8.0 | 0.00 | 0.00 | 0.00 | 50 | 1014.1 |
| 20260503182019 | 23 | 0 | 3.2 | 8.0 | 0.00 | 0.00 | 0.00 | 51 | 1014.1 |
| 20260503181019 | 23 | 0 | 1.6 | 9.7 | 0.00 | 0.00 | 0.00 | 51 | 1014.2 |
| 20260503180020 | 22 | 0.0 | 4.8 | 0.00 | 0.00 | 0.00 | 57 | 1014.2 | |
| 20260503175018 | 22 | 315 | 1.6 | 9.7 | 0.00 | 0.00 | 0.00 | 59 | 1014.3 |
| 20260503174020 | 22 | 0.0 | 6.4 | 0.00 | 0.00 | 0.00 | 62 | 1014.3 | |
| 20260503173019 | 22 | 0 | 1.6 | 9.7 | 0.00 | 0.00 | 0.00 | 59 | 1014.5 |
| 20260503172019 | 22 | 0 | 1.6 | 8.0 | 0.00 | 0.00 | 0.00 | 60 | 1014.4 |
| 20260503171019 | 22 | 0.0 | 1.6 | 0.00 | 0.00 | 0.00 | 58 | 1014.5 | |
| 20260503131020 | 10 | 0.0 | 0.0 | 0.00 | 0.00 | 0.00 | 92 | 1014.5 | |
| 20260503081019 | 12 | 0.0 | 0.0 | 0.00 | 0.00 | 0.00 | 88 | 1015.2 | |
| 20260503072018 | 13 | 0.0 | 0.0 | 0.00 | 0.00 | 0.00 | 86 | 1015.2 | |
| 20260503071019 | 13 | 0.0 | 0.0 | 0.00 | 0.00 | 0.00 | 86 | 1015.1 | |
| 20260503055039 | 14 | 0.0 | 0.0 | 0.00 | 0.00 | 0.00 | 80 | 1015.1 | |
| 20260503054041 | 15 | 0.0 | 0.0 | 0.00 | 0.00 | 0.00 | 79 | 1015.0 | |
| 20260503053020 | 15 | 0.0 | 0.0 | 0.00 | 0.00 | 0.00 | 78 | 1015.1 | |
| 20260503052019 | 15 | 0.0 | 0.0 | 0.00 | 0.00 | 0.00 | 76 | 1015.1 | |
| 20260503051059 | 15 | 0.0 | 0.0 | 0.00 | 0.00 | 0.00 | 74 | 1015.0 | |
| 20260503050021 | 16 | 0.0 | 0.0 | 0.00 | 0.00 | 0.00 | 73 | 1015.0 | |
| 20260503045038 | 16 | 0.0 | 0.0 | 0.00 | 0.00 | 0.00 | 72 | 1014.8 | |
| 20260503044019 | 16 | 0.0 | 0.0 | 0.00 | 0.00 | 0.00 | 72 | 1014.7 | |
| 20260503043018 | 16 | 0.0 | 0.0 | 0.00 | 0.00 | 0.00 | 72 | 1014.6 | |
| 20260503042018 | 17 | 0.0 | 0.0 | 0.00 | 0.00 | 0.00 | 71 | 1014.4 | |
| 20260503041038 | 17 | 0.0 | 0.0 | 0.00 | 0.00 | 0.00 | 70 | 1014.3 | |
| 20260503040020 | 17 | 0.0 | 0.0 | 0.00 | 0.00 | 0.00 | 70 | 1014.1 | |
| 20260503035018 | 18 | 0.0 | 0.0 | 0.00 | 0.00 | 0.00 | 68 | 1013.9 | |
| 20260503034019 | 18 | 0.0 | 0.0 | 0.00 | 0.00 | 0.00 | 66 | 1013.7 | |
| 20260503033018 | 18 | 0.0 | 0.0 | 0.00 | 0.00 | 0.00 | 65 | 1013.6 | |
| 20260503032018 | 19 | 0.0 | 0.0 | 0.00 | 0.00 | 0.00 | 64 | 1013.5 | |
| 20260503031020 | 20 | 0.0 | 0.0 | 0.00 | 0.00 | 0.00 | 62 | 1013.5 | |
| 20260503030019 | 21 | 0.0 | 0.0 | 0.00 | 0.00 | 0.00 | 60 | 1013.4 | |
| 20260503025019 | 21 | 0.0 | 0.0 | 0.00 | 0.00 | 0.00 | 59 | 1013.3 | |
| 20260503024019 | 22 | 0.0 | 1.6 | 0.00 | 0.00 | 0.00 | 57 | 1013.3 | |
| 20260503023059 | 22 | 0.0 | 1.6 | 0.00 | 0.00 | 0.00 | 55 | 1013.3 | |
| 20260503022018 | 23 | 0.0 | 0.0 | 0.00 | 0.00 | 0.00 | 52 | 1013.2 | |
| 20260503021040 | 23 | 0.0 | 3.2 | 0.00 | 0.00 | 0.00 | 51 | 1013.2 | |
| 20260503020018 | 23 | 0.0 | 4.8 | 0.00 | 0.00 | 0.00 | 52 | 1013.2 | |
| 20260503015019 | 23 | 0.0 | 1.6 | 0.00 | 0.00 | 0.00 | 52 | 1013.2 | |
| 20260503014020 | 24 | 338 | 1.6 | 8.0 | 0.00 | 0.00 | 0.00 | 52 | 1013.3 |
| 20260503013020 | 24 | 338 | 1.6 | 11.3 | 0.00 | 0.00 | 0.00 | 51 | 1013.3 |
| 20260503012040 | 24 | 315 | 1.6 | 9.7 | 0.00 | 0.00 | 0.00 | 51 | 1013.3 |
| 20260503011019 | 23 | 0.0 | 4.8 | 0.00 | 0.00 | 0.00 | 52 | 1013.3 | |
| 20260503010021 | 24 | 0 | 1.6 | 8.0 | 0.00 | 0.00 | 0.00 | 52 | 1013.3 |
| 20260503005019 | 24 | 0 | 3.2 | 12.9 | 0.00 | 0.00 | 0.00 | 52 | 1013.4 |
| 20260503004020 | 24 | 338 | 1.6 | 11.3 | 0.00 | 0.00 | 0.00 | 51 | 1013.5 |
| 20260503003021 | 25 | 338 | 3.2 | 14.5 | 0.00 | 0.00 | 0.00 | 49 | 1013.4 |
| 20260503002101 | 24 | 315 | 1.6 | 17.7 | 0.00 | 0.00 | 0.00 | 51 | 1013.4 |
| 20260503001020 | 25 | 338 | 3.2 | 14.5 | 0.00 | 0.00 | 0.00 | 50 | 1013.5 |
| 20260503000020 | 25 | 315 | 3.2 | 12.9 | 0.00 | 0.00 | 0.00 | 51 | 1013.5 |
| 20260502235021 | 25 | 0 | 1.6 | 14.5 | 0.00 | 0.00 | 0.00 | 50 | 1013.5 |
| 20260502234040 | 25 | 315 | 1.6 | 11.3 | 0.00 | 0.00 | 0.00 | 49 | 1013.8 |
| 20260502233020 | 25 | 90 | 1.6 | 11.3 | 0.00 | 0.00 | 0.00 | 50 | 1013.9 |
| 20260502232021 | 25 | 0.0 | 11.3 | 0.00 | 0.00 | 0.00 | 50 | 1014.0 | |
| 20260502231020 | 24 | 315 | 1.6 | 8.0 | 0.00 | 0.00 | 0.00 | 51 | 1014.2 |
| 20260502230019 | 25 | 293 | 1.6 | 9.7 | 0.00 | 0.00 | 0.00 | 52 | 1014.3 |
| 20260502225059 | 24 | 293 | 1.6 | 11.3 | 0.00 | 0.00 | 0.00 | 55 | 1014.5 |
| 20260502224019 | 23 | 315 | 3.2 | 8.0 | 0.00 | 0.00 | 0.00 | 52 | 1014.6 |
| 20260502223039 | 23 | 0 | 1.6 | 9.7 | 0.00 | 0.00 | 0.00 | 55 | 1014.7 |
| 20260502222020 | 23 | 293 | 3.2 | 11.3 | 0.00 | 0.00 | 0.00 | 52 | 1014.8 |
| 20260502221040 | 23 | 270 | 1.6 | 8.0 | 0.00 | 0.00 | 0.00 | 53 | 1014.9 |
| 20260502220020 | 23 | 0 | 3.2 | 16.1 | 0.00 | 0.00 | 0.00 | 53 | 1015.0 |
| 20260502215019 | 23 | 293 | 3.2 | 17.7 | 0.00 | 0.00 | 0.00 | 53 | 1015.1 |
| 20260502214020 | 23 | 338 | 3.2 | 12.9 | 0.00 | 0.00 | 0.00 | 54 | 1015.2 |
| 20260502213019 | 22 | 0 | 1.6 | 12.9 | 0.00 | 0.00 | 0.00 | 55 | 1015.4 |
| 20260502212021 | 22 | 315 | 3.2 | 11.3 | 0.00 | 0.00 | 0.00 | 57 | 1015.5 |